Weather History for KHNZ - April, 2013

Change the Weather History Date:

Thursday, April 4, 2013

  Actual Average (KTDF) Record (KTDF)
Temperature  
Mean Temperature 42 °F -  
Max Temperature 50 °F 68 °F 86 °F (1963)
Min Temperature 34 °F 43 °F 28 °F (1992)
Degree Days  
Heating Degree Days 23    
Moisture  
Dew Point 26 °F    
Average Humidity 60    
Maximum Humidity 95    
Minimum Humidity 31    
Precipitation  
Precipitation 0.61 in - - ()
Sea Level Pressure  
Sea Level Pressure 30.24 in    
Wind  
Wind Speed 10 mph (NE)    
Max Wind Speed 15 mph    
Max Gust Speed 22 mph    
Visibility 9 miles    
Events Rain    
Averages and records for this station are not official NWS values.
T = Trace of Precipitation, MM = Missing Value Source: NWS Daily Summary

Daily Weather History Graph

Daily Weather History Graph

Search for Another Location

Airport or City:

Trip Planner

Search our weather history database for the weather conditions in past years. The results will help you decide how hot, cold, wet, or windy it might be!

Date:

Astronomy

Apr. 04, 2013 Rise Set
Actual Time 6:55 AM EDT 7:38 PM EDT
Civil Twilight 6:29 AM EDT 8:05 PM EDT
Nautical Twilight 5:58 AM EDT 8:35 PM EDT
Astronomical Twilight 5:27 AM EDT 9:07 PM EDT
Moon 3:11 AM EDT (4/4) 2:04 PM EDT (4/4)
Length of Visible Light 13h 35m
Length of Day
12h 43m
Waning Crescent, 34% of the Moon is Illuminated
Apr 4
Waning Crescent
Apr 10
New
Apr 18
First Quarter
Apr 25
Full
May 2
Last Quarter

Hourly Weather History & Observations

Time (EDT) Temp. Windchill Dew Point Humidity Pressure Visibility Wind Dir Wind Speed Gust Speed Precip Events Conditions
12:15 AM 41.4 °F 36.2 °F 26.4 °F 55% 30.32 in 10.0 mi NNE 8.1 mph - N/A   Clear
12:35 AM 42.6 °F 36.3 °F 20.8 °F 42% 30.33 in 10.0 mi NE 11.5 mph - N/A   Clear
12:55 AM 42.8 °F 35.4 °F 17.2 °F 36% 30.32 in 10.0 mi NE 15.0 mph 21.9 mph N/A   Clear
1:15 AM 42.6 °F 36.3 °F 16.2 °F 34% 30.32 in 10.0 mi NE 11.5 mph 18.4 mph N/A   Clear
1:35 AM 42.3 °F 34.8 °F 15.3 °F 34% 30.32 in 10.0 mi NE 15.0 mph 19.6 mph N/A   Clear
1:55 AM 42.4 °F 35.7 °F 13.8 °F 31% 30.32 in 10.0 mi NE 12.7 mph 18.4 mph N/A   Clear
2:15 AM 42.3 °F 35.9 °F 15.8 °F 34% 30.32 in 10.0 mi NE 11.5 mph 16.1 mph N/A   Clear
2:35 AM 41.9 °F 35.0 °F 17.8 °F 38% 30.32 in 10.0 mi NE 12.7 mph 17.3 mph N/A   Clear
2:55 AM 41.4 °F 34.7 °F 19.4 °F 41% 30.31 in 10.0 mi NE 11.5 mph 16.1 mph N/A   Clear
3:15 AM 40.8 °F 35.0 °F 21.2 °F 46% 30.32 in 10.0 mi NE 9.2 mph - N/A   Clear
3:35 AM 40.1 °F 34.1 °F 23.0 °F 51% 30.32 in 10.0 mi ENE 9.2 mph - N/A   Clear
3:55 AM 40.1 °F 34.7 °F 23.7 °F 52% 30.32 in 10.0 mi NE 8.1 mph - N/A   Clear
4:15 AM 39.6 °F 34.0 °F 24.1 °F 54% 30.32 in 10.0 mi NE 8.1 mph - N/A   Clear
4:35 AM 39.4 °F 33.2 °F 24.3 °F 55% 30.32 in 10.0 mi ENE 9.2 mph - N/A   Clear
4:55 AM 38.8 °F 33.8 °F 24.3 °F 56% 30.33 in 10.0 mi NE 6.9 mph - N/A   Clear
5:15 AM 38.7 °F 33.6 °F 23.7 °F 55% 30.33 in 10.0 mi NE 6.9 mph - N/A   Clear
5:35 AM 38.1 °F 32.3 °F 22.5 °F 53% 30.33 in 10.0 mi NE 8.1 mph - N/A   Clear
5:55 AM 37.4 °F 31.4 °F 20.7 °F 51% 30.34 in 10.0 mi NE 8.1 mph - N/A   Clear
6:15 AM 36.5 °F 31.0 °F 19.6 °F 50% 30.34 in 10.0 mi NE 6.9 mph - N/A   Clear
6:35 AM 35.8 °F 30.9 °F 18.7 °F 50% 30.34 in 10.0 mi NE 5.8 mph - N/A   Clear
6:55 AM 35.4 °F 29.0 °F 18.7 °F 51% 30.36 in 10.0 mi ENE 8.1 mph - N/A   Clear
7:15 AM 34.7 °F 28.8 °F 19.8 °F 54% 30.35 in 10.0 mi NE 6.9 mph - N/A   Clear
7:35 AM 35.6 °F 30.7 °F 19.0 °F 51% 30.36 in 10.0 mi NNE 5.8 mph - N/A   Clear
7:55 AM 35.6 °F 29.9 °F 18.7 °F 50% 30.37 in 10.0 mi NE 6.9 mph - N/A   Clear
8:15 AM 36.5 °F 30.3 °F 18.9 °F 49% 30.38 in 10.0 mi NE 8.1 mph - N/A   Clear
8:35 AM 36.9 °F 30.7 °F 18.7 °F 48% 30.38 in 10.0 mi NE 8.1 mph - N/A   Clear
8:55 AM 38.1 °F 31.7 °F 18.9 °F 46% 30.38 in 10.0 mi NE 9.2 mph - N/A   Clear
9:15 AM 39.2 °F 33.0 °F 19.8 °F 46% 30.38 in 10.0 mi NE 9.2 mph - N/A   Clear
9:35 AM 40.8 °F 35.6 °F 20.3 °F 44% 30.37 in 10.0 mi ENE 8.1 mph - N/A   Clear
9:55 AM 41.0 °F 35.8 °F 20.3 °F 44% 30.36 in 10.0 mi ENE 8.1 mph - N/A   Clear
10:15 AM 42.3 °F 36.3 °F 19.8 °F 41% 30.36 in 10.0 mi ENE 10.4 mph - N/A   Clear
10:35 AM 43.2 °F 37.4 °F 19.2 °F 38% 30.34 in 10.0 mi ENE 10.4 mph 18.4 mph N/A   Clear
10:55 AM 44.6 °F 38.4 °F 20.1 °F 38% 30.34 in 10.0 mi East 12.7 mph 16.1 mph N/A   Clear
11:15 AM 46.2 °F 40.5 °F 20.7 °F 36% 30.33 in 10.0 mi East 12.7 mph 16.1 mph N/A   Clear
11:35 AM 45.9 °F 40.8 °F 19.2 °F 35% 30.33 in 10.0 mi ESE 10.4 mph 18.4 mph N/A   Clear
11:55 AM 47.1 °F - 20.3 °F 35% 30.32 in 10.0 mi ENE 9.2 mph 16.1 mph N/A   Clear
12:35 PM 48.0 °F - 20.7 °F 34% 30.29 in 10.0 mi ENE 10.4 mph - N/A   Scattered Clouds
12:55 PM 49.1 °F - 20.8 °F 33% 30.27 in 10.0 mi East 9.2 mph - N/A   Scattered Clouds
1:15 PM 48.4 °F - 20.7 °F 33% 30.27 in 10.0 mi ESE 9.2 mph - N/A   Mostly Cloudy
1:35 PM 50.0 °F - 22.1 °F 33% 30.25 in 10.0 mi East 9.2 mph 17.3 mph N/A   Mostly Cloudy
1:55 PM 48.7 °F - 20.8 °F 33% 30.23 in 10.0 mi ESE 10.4 mph - N/A   Scattered Clouds
2:15 PM 48.7 °F - 21.6 °F 34% 30.23 in 10.0 mi East 6.9 mph - N/A   Mostly Cloudy
2:35 PM 48.0 °F - 24.8 °F 40% 30.23 in 10.0 mi East 6.9 mph - N/A Rain Light Rain
2:55 PM 45.7 °F 42.0 °F 28.8 °F 52% 30.24 in 10.0 mi East 6.9 mph - N/A Rain Light Rain
3:15 PM 44.2 °F 42.7 °F 32.2 °F 63% 30.23 in 10.0 mi ENE 3.5 mph - N/A Rain Rain
3:55 PM 41.9 °F 38.2 °F 34.3 °F 75% 30.22 in 7.0 mi NNE 5.8 mph - 0.03 in Rain Rain
4:15 PM 40.1 °F 34.7 °F 33.4 °F 77% 30.20 in 5.0 mi NNE 8.1 mph - 0.03 in Rain Rain
4:35 PM 39.2 °F 34.2 °F 33.8 °F 81% 30.20 in 4.0 mi NNE 6.9 mph - 0.08 in Rain Rain
4:55 PM 38.7 °F 31.4 °F 34.9 °F 86% 30.18 in 5.0 mi NNE 11.5 mph - 0.12 in Rain Rain
5:15 PM 38.7 °F 32.9 °F 35.1 °F 87% 30.18 in 10.0 mi NNE 8.1 mph - N/A Rain Light Rain
5:35 PM 38.8 °F 32.6 °F 35.6 °F 88% 30.17 in 10.0 mi NNE 9.2 mph - 0.01 in   Light Drizzle
5:55 PM 38.7 °F 32.9 °F 35.6 °F 89% 30.16 in 10.0 mi NNE 8.1 mph - 0.01 in Rain Light Rain
6:15 PM 38.7 °F 32.9 °F 36.3 °F 91% 30.14 in 7.0 mi NNE 8.1 mph - N/A Rain Light Rain
6:35 PM 38.7 °F 31.4 °F 36.3 °F 91% 30.12 in 7.0 mi NE 11.5 mph - N/A Rain Rain
6:55 PM 38.7 °F 32.9 °F 36.5 °F 92% 30.12 in 7.0 mi NE 8.1 mph - 0.02 in Rain Light Rain
7:15 PM 38.3 °F 32.5 °F 36.1 °F 92% 30.12 in 7.0 mi NE 8.1 mph - 0.01 in Rain Light Rain
7:55 PM 38.3 °F 30.9 °F 36.5 °F 93% 30.07 in 5.0 mi NE 11.5 mph 17.3 mph 0.04 in Rain Light Rain
8:15 PM 38.3 °F 31.4 °F 36.7 °F 94% 30.09 in 7.0 mi North 10.4 mph - 0.01 in Rain Light Rain
8:35 PM 38.5 °F 31.6 °F 36.7 °F 93% 30.07 in 4.0 mi NE 10.4 mph 20.7 mph 0.04 in Rain Rain
8:55 PM 38.5 °F 30.3 °F 36.9 °F 94% 30.04 in 5.0 mi NE 13.8 mph 19.6 mph 0.06 in Rain Light Rain
9:35 PM 38.5 °F 31.6 °F 36.9 °F 94% 30.04 in 3.0 mi NE 10.4 mph 19.6 mph 0.09 in Rain Rain
9:55 PM 38.5 °F 30.7 °F 36.9 °F 94% 30.03 in 4.0 mi NNE 12.7 mph 18.4 mph 0.13 in Rain Rain
10:15 PM 38.5 °F 32.7 °F 36.9 °F 94% 30.03 in 3.0 mi NNE 8.1 mph 16.1 mph 0.05 in Rain Rain
10:35 PM 38.3 °F 30.9 °F 36.9 °F 95% 30.01 in 5.0 mi NNE 11.5 mph 17.3 mph 0.08 in Rain Rain
10:55 PM 38.3 °F 30.5 °F 36.7 °F 94% 29.97 in 5.0 mi NNE 12.7 mph 19.6 mph 0.10 in Rain Light Rain
11:15 PM 38.3 °F 29.7 °F 36.9 °F 95% 29.96 in 4.0 mi NNE 15.0 mph 21.9 mph 0.04 in Rain Rain
11:35 PM 38.3 °F 33.2 °F 37.0 °F 95% 29.97 in 5.0 mi North 6.9 mph 10.4 mph 0.08 in Rain Light Rain
11:55 PM 38.3 °F 32.5 °F 37.0 °F 95% 29.94 in 4.0 mi North 8.1 mph - 0.10 in Rain Rain